Regional Weather Roundup
Issued by NWS

Home | Current Version | Previous Version | Graphics & Text | Print | Product List | Glossary On
Versions: 1 2 3 4 5 6 7 8 9 10 11 12 13 14 15 16 17 18 19 20 21 22 23 24 25 26 27 28 29 30 31 32 33 34 35 36 37 38 39 40 41 42 43 44 45 46 47 48 49 50
000
ASUS43 KBIS 271810
RWRND

NORTH DAKOTA REGIONAL WEATHER ROUNDUP
NATIONAL WEATHER SERVICE BISMARCK ND
100 PM CDT MON APR 27 2015

NOTE: "FAIR" INDICATES FEW OR NO CLOUDS BELOW 12,000 FEET WITH NO
SIGNIFICANT WEATHER AND/OR OBSTRUCTIONS TO VISIBILITY.


NDZ001>003-009>011-017-271900-
NORTHWEST NORTH DAKOTA

CITY           SKY/WX    TMP DP  RH WIND       PRES   REMARKS
WILLISTON      CLOUDY    46  39  76 W7        30.33F
6HR MIN TEMP:  41; 6HR MAX TEMP:  47; 6HR PCP:  0.03;

MINOT          LGT RAIN  46  42  86 NW9       30.30S
MINOT AFB      LGT RAIN  45  45 100 NW9       30.29F
$$

NDZ018>021-031>035-040>046-271900-
SOUTHWEST NORTH DAKOTA

CITY           SKY/WX    TMP DP  RH WIND       PRES   REMARKS
BISMARCK       CLOUDY    48  42  80 NW16      30.30R
6HR MIN TEMP:  45; 6HR MAX TEMP:  49;

DICKINSON      CLOUDY    43  39  86 NW12      30.31S
GARRISON         N/A     46  43  89 N9        30.30F
6HR MIN TEMP:  41; 6HR MAX TEMP:  46; 6HR PCP:  0.06;

HETTINGER ARPT CLOUDY    43  40  89 N14       30.32S
$$

NDZ004>008-012>016-024-026-027-054-271900-
NORTHEAST NORTH DAKOTA

CITY           SKY/WX    TMP DP  RH WIND       PRES   REMARKS
GRAND FORKS    CLOUDY    65  42  43 NW8       30.21F
GRND FRKS AFB  PTSUNNY   64  42  45 N5        30.21F
DEVILS LAKE    CLOUDY    52  39  62 N15       30.25S
$$

NDZ022-023-025-028>030-036>039-047>053-271900-
SOUTHEAST NORTH DAKOTA

CITY           SKY/WX    TMP DP  RH WIND       PRES   REMARKS
FARGO          MOSUNNY   68  25  19 VRB3      30.21F
6HR MIN TEMP:  36; 6HR MAX TEMP:  70;

JAMESTOWN      PTSUNNY   66  35  31 W10       30.20F
$$




USA.gov is the U.S. government's official web portal to all federal, state and local government web resources and services.